Location: Cedar Brake
(32.2526°N, 97.8459°W)
Time: 20:47:52
(UTC+00:00)

Gbstr 26 Del rocket - Pass Details

Date: 22 April 2026
Orbit: 490 x 1215 km, 51.8° (Epoch: 21 May)

Event Time Altitude Azimuth Distance (km) Brightness Sun altitude
Exits shadow 10:07:45 - 325° (NW) 2,378 6.0 -21.5°
Reaches altitude 10° 10:09:34 10° 333° (NNW) 1,677 5.3 -21.2°
Maximum altitude 10:12:57 33° 40° (NE) 857 4.4 -20.6°
Drops below altitude 10° 10:16:29 10° 105° (ESE) 1,756 6.0 -19.9°
Sets 10:18:57 0° 115° (ESE) 2,715 6.9 -19.5°
